FW6979 Weather Reports


time (UTC)temp
C
wind
direction
speed
KPH
gust
KPH
rain 1hr
cm
rain 24hr
cm
rain mn
cm
humidity
%
barometer
mb
20260505204534 26 267 1.6 11.3 0.00 0.00 0.00 38 1014.6
20260505203052 26 0 0.0 14.5 0.00 0.00 0.00 40 1014.9
20260505201541 26 0 1.6 8.0 0.00 0.00 0.00 36 1014.7
20260505200036 25 72 1.6 6.4 0.00 0.00 0.00 39 1014.9
20260505194535 26 0 0.0 4.8 0.00 0.00 0.00 38 1015.0
20260505193034 26 228 4.8 17.7 0.00 0.00 0.00 38 1015.2
20260505191537 26 182 1.6 6.4 0.00 0.00 0.00 39 1015.5
20260505190038 25 278 1.6 9.7 0.00 0.00 0.00 40 1016.0
20260505184540 26 0 1.6 6.4 0.00 0.00 0.00 39 1016.1
20260505183039 25 213 1.6 6.4 0.00 0.00 0.00 41 1016.4
20260505181543 25 294 1.6 9.7 0.00 0.00 0.00 42 1016.3
20260505180039 25 246 1.6 8.0 0.00 0.00 0.00 42 1016.4
20260505174541 25 292 1.6 8.0 0.00 0.00 0.00 42 1016.6
20260505173032 25 0 1.6 8.0 0.00 0.00 0.00 40 1016.8
20260505171542 25 273 3.2 9.7 0.00 0.00 0.00 40 1017.1
20260505170055 24 281 1.6 9.7 0.00 0.00 0.00 45 1017.2
20260505164536 23 305 0.0 9.7 0.00 0.00 0.00 47 1017.0
20260505163037 23 302 3.2 8.0 0.00 0.00 0.00 47 1017.2
20260505161534 22 0 1.6 6.4 0.00 0.00 0.00 54 1017.1
20260505153038 20 265 0.0 3.2 0.00 0.00 0.00 58 1017.7
20260505151550 19 266 0.0 3.2 0.00 0.00 0.00 57 1017.7
20260505124544 10 0 0.0 0.0 0.00 0.00 0.00 88 1017.0
20260505123041 9 0 0.0 0.0 0.00 0.00 0.00 89 1016.7
20260505121538 8 0 0.0 0.0 0.00 0.00 0.00 89 1016.6
20260505120042 7 0 0.0 0.0 0.00 0.00 0.00 89 1016.3
20260505114540 7 0 0.0 0.0 0.00 0.00 0.00 88 1016.0
20260505113035 7 0 0.0 0.0 0.00 0.00 0.00 88 1016.0
20260505111543 7 0 0.0 0.0 0.00 0.00 0.00 87 1015.8
20260505101534 8 0 0.0 0.0 0.00 0.00 0.00 86 1015.9
20260505100041 8 0 0.0 0.0 0.00 0.00 0.00 85 1015.7
20260505094539 8 0 0.0 0.0 0.00 0.00 0.00 85 1015.7
20260505093041 8 0 0.0 0.0 0.00 0.00 0.00 85 1015.6
20260505091540 8 0 0.0 0.0 0.00 0.00 0.00 85 1015.5
20260505090051 8 0 0.0 0.0 0.00 0.00 0.00 85 1015.4
20260505084540 8 0 0.0 0.0 0.00 0.00 0.00 85 1015.3
20260505083036 8 0 0.0 0.0 0.00 0.00 0.00 85 1015.3
20260505081544 9 0 0.0 0.0 0.00 0.00 0.00 85 1015.4
20260505080038 9 0 0.0 0.0 0.00 0.00 0.00 86 1015.4
20260505074537 9 0 0.0 0.0 0.00 0.00 0.00 86 1015.4
20260505073038 9 0 0.0 0.0 0.00 0.00 0.00 86 1015.4
20260505071532 9 0 0.0 0.0 0.00 0.00 0.00 86 1015.4
20260505070033 9 0 0.0 1.6 0.00 0.00 0.00 86 1015.4
20260505064534 9 0 0.0 1.6 0.00 0.00 0.00 85 1015.4
20260505063039 10 0 0.0 1.6 0.00 0.00 0.00 84 1015.6
20260505061539 10 0 0.0 1.6 0.00 0.00 0.00 85 1015.8
20260505060036 10 0 0.0 0.0 0.00 0.00 0.00 85 1015.8
20260505054544 10 0 0.0 0.0 0.00 0.00 0.00 85 1015.8
20260505053045 10 0 0.0 0.0 0.00 0.00 0.00 84 1015.7
20260505051537 10 0 0.0 0.0 0.00 0.00 0.00 84 1015.8
20260505041538 12 0 0.0 0.0 0.00 0.00 0.00 82 1015.7
20260505040038 12 0 0.0 0.0 0.00 0.00 0.00 81 1015.9
20260505034536 12 0 0.0 0.0 0.00 0.00 0.00 81 1015.9
20260505033117 12 0 0.0 0.0 0.00 0.00 0.00 81 1015.9
20260505031538 12 0 0.0 1.6 0.00 0.00 0.00 81 1016.0
20260505030038 12 0 0.0 1.6 0.00 0.00 0.00 80 1015.9
20260505024536 13 0 0.0 0.0 0.00 0.00 0.00 79 1016.1
20260505023042 13 0 0.0 1.6 0.00 0.00 0.00 78 1016.0
20260505021533 14 0 0.0 0.0 0.00 0.00 0.00 77 1015.9
20260505020035 15 0 0.0 0.0 0.00 0.00 0.00 75 1015.7
20260505014540 15 0 0.0 0.0 0.00 0.00 0.00 73 1015.7
20260505013037 15 0 0.0 0.0 0.00 0.00 0.00 72 1015.7
20260505011537 16 0 0.0 0.0 0.00 0.00 0.00 71 1015.4
20260505010037 16 0 0.0 0.0 0.00 0.00 0.00 69 1015.3
20260505004544 17 0 0.0 0.0 0.00 0.00 0.00 66 1015.3
20260505003037 18 0 0.0 0.0 0.00 0.00 0.00 62 1015.0
20260505001537 19 0 0.0 0.0 0.00 0.00 0.00 59 1015.1
20260505000037 20 0 0.0 1.6 0.00 0.00 0.00 58 1015.0
20260504234550 21 0 0.0 0.0 0.00 0.00 0.00 56 1015.0
20260504233035 21 0 0.0 0.0 0.00 0.00 0.00 56 1015.0
20260504231548 21 0 0.0 1.6 0.00 0.00 0.00 51 1015.0
20260504230035 22 0 0.0 1.6 0.00 0.00 0.00 47 1014.9
20260504224537 23 0 0.0 6.4 0.00 0.00 0.00 45 1014.8
20260504223039 23 0 0.0 3.2 0.00 0.00 0.00 40 1014.7
20260504221535 24 315 0.0 4.8 0.00 0.00 0.00 40 1014.8
20260504220032 24 0 0.0 4.8 0.00 0.00 0.00 40 1014.9
20260504214539 25 36 0.0 6.4 0.00 0.00 0.00 38 1014.7
20260504213037 23 0 0.0 6.4 0.00 0.00 0.00 44 1014.9
20260504211539 24 306 0.0 8.0 0.00 0.00 0.00 43 1014.8
20260504210037 23 0 0.0 3.2 0.00 0.00 0.00 43 1014.8